Regional Weather Roundup
Issued by NWS

Home | Current Version | Previous Version | Graphics & Text | Print | Product List | Glossary On
Versions: 1 2 3 4 5 6 7 8 9 10 11 12 13 14 15 16 17 18 19 20 21 22 23 24 25 26 27 28 29 30 31 32 33 34 35 36 37 38 39 40 41 42 43 44 45 46 47 48 49 50
000
ASUS43 KIND 231159
RWRIN

WEATHER ROUNDUP FOR INDIANA
NATIONAL WEATHER SERVICE INDIANAPOLIS IN
800 AM EDT SAT AUG 23 2014

NOTE: "FAIR" INDICATES FEW OR NO CLOUDS BELOW 12,000 FEET WITH NO
SIGNIFICANT WEATHER AND/OR OBSTRUCTIONS TO VISIBILITY.

* - STATION DOES NOT REPORT WEATHER SUCH AS PRECIPITATION OR FOG.

+ - STATION NOT QUALITY CONTROLLED BY THE NATIONAL WEATHER SERVICE.
    USE DATA WITH CAUTION...ESPECIALLY DEWPOINT AND RELATIVE
    HUMIDITY OBSERVATIONS.

INZ001>003-010>013-019-020-231300-
NORTHWEST INDIANA

CITY           SKY/WX    TMP DP  RH WIND       PRES   REMARKS
GARY /AIRPORT/ MOCLDY    72  70  94 CALM      29.98S FOG
KNOX *+        PTCLDY    68  66  94 CALM      29.98S
MONTICELLO +   MOCLDY    69  69 100 CALM      29.98S
VALPARAISO     FOG       69  68  96 CALM      29.99R VSB 1/4
6HR MIN TEMP:  67; 6HR MAX TEMP:  71;


$$

LMZ046-743>745-231300-
SOUTHERN LAKE MICHIGAN

STATION/POSITION TIME  TEMP WIND        PRES
                       AIR  DIR/SP/G
                 (UTC) (F)  (DEG/KT/KT) (MB)
MICHIGAN CITY    1100   72  100/  3/  4   N/A

$$

INZ004-005-014>016-021>024-231300-
NORTH CENTRAL INDIANA

CITY           SKY/WX    TMP DP  RH WIND       PRES   REMARKS
GOSHEN         CLOUDY    74  72  93 E5        30.00S FOG
6HR MIN TEMP:  71; 6HR MAX TEMP:  77;

SOUTH BEND     FOG       74  73  97 SE6       29.99F VSB 1/4
6HR MIN TEMP:  70; 6HR MAX TEMP:  74;

WARSAW +       CLOUDY    70  70 100 CALM      30.00F FOG

$$

INZ006>009-017-018-025>027-231300-
NORTHEAST INDIANA

CITY           SKY/WX    TMP DP  RH WIND       PRES   REMARKS
ANGOLA *+      CLOUDY    70  61  73 E5        30.03R
FORT WAYNE     FOG       71  71 100 CALM      30.01S VSB 1/4
6HR MIN TEMP:  68; 6HR MAX TEMP:  73; 6HR PCP: TRACE;


$$

INZ028-029-035-036-043>045-051>053-231300-
WEST CENTRAL INDIANA

CITY           SKY/WX    TMP DP  RH WIND       PRES   REMARKS
GREENCASTLE +  FOG       70  70 100 CALM      30.00S VSB<1/4
LAFAYETTE      MOCLDY    71  71 100 E5        29.98S
6HR MIN TEMP:  67; 6HR MAX TEMP:  71;

TERRE HAUTE    MOCLDY    72  71  97 SE3       29.97F FOG
6HR MIN TEMP:  70; 6HR MAX TEMP:  73;


$$

INZ030>032-037>040-046>048-054>057-064-065-231300-
CENTRAL INDIANA

CITY           SKY/WX    TMP DP  RH WIND       PRES   REMARKS
FRANKFORT +    CLEAR    N/A N/A N/A CALM      30.01S FOG
INDIANAPOLIS   NOT AVBL
-EAGLE CREEK   MOCLDY    71  69  93 NE3       30.00R
6HR MIN TEMP:  69; 6HR MAX TEMP:  72;

KOKOMO *+      CLOUDY    68  66  94 S3        30.00S VSB 1/4
MT COMFORT *+  CLOUDY    68 N/A N/A CALM      30.01F VSB 1/2
SHELBYVILLE    MOCLDY    70  68  93 NE3       30.00S FOG
6HR MIN TEMP:  67; 6HR MAX TEMP:  72;


$$

INZ033-034-041-042-049-050-058-059-231300-
EAST CENTRAL INDIANA

CITY           SKY/WX    TMP DP  RH WIND       PRES   REMARKS
MUNCIE         MOSUNNY   69  67  93 CALM      30.01S
6HR MIN TEMP:  67; 6HR MAX TEMP:  71;


$$

INZ060-061-067>069-081>083-085>088-231300-
SOUTHWEST INDIANA

CITY           SKY/WX    TMP DP  RH WIND       PRES   REMARKS
EVANSVILLE     PTCLDY    76  70  82 S3        29.97S
6HR MIN TEMP:  76; 6HR MAX TEMP:  77;


$$

INZ062-063-066-070>080-084-089>092-231300-
SOUTH CENTRAL AND SOUTHEAST INDIANA

CITY           SKY/WX    TMP DP  RH WIND       PRES   REMARKS
BLOOMINGTON    FOG       74  72  93 CALM      30.00S VSB 1/4
6HR MIN TEMP:  71; 6HR MAX TEMP:  75;


$$




USA.gov is the U.S. government's official web portal to all federal, state and local government web resources and services.